Miscellaneous Local Product
Issued by NWS Hastings, NE

Home | Current Version | Previous Version | Text Only | Print | Product List | Glossary Off
Versions: 1 2 3 4 5 6 7 8 9 10 11 12 13 14 15 16 17 18 19 20 21 22 23 24 25 26 27 28 29 30 31 32 33 34 35 36 37 38 39 40 41 42 43 44 45 46 47 48 49 50

061
AXUS43 KGID 252202
MISGRI

GID CWA HOURLY WEATHER ROUNDUP
NATIONAL WEATHER SERVICE HASTINGS NE
500 PM CDT WED MAY 25 2016

NOTE: "FAIR" INDICATES FEW OR NO CLOUDS BELOW 12,000 FEET WITH NO
SIGNIFICANT WEATHER AND/OR OBSTRUCTIONS TO VISIBILITY.

...SOUTH CENTRAL NEBRASKA...

CITY           SKY/WX    TMP DP  RH WIND       PRES   REMARKS
GRAND ISLAND   PTSUNNY   78  60  53 NW3       29.84F
HASTINGS       SUNNY     75  64  68 VRB7      29.85F
KEARNEY        MOSUNNY   77  61  57 NW3       29.86S
ORD            SUNNY     80  55  42 W6        29.82S
YORK           PTSUNNY   75  64  69 SW8       29.84F
AURORA         CLOUDY    76  65  67 SW9       29.84F
LEXINGTON      SUNNY     77  57  49 CALM      29.85F
HOLDREGE       PTSUNNY   76  58  53 CALM      29.85F
HEBRON         CLOUDY    77  67  72 SW8       29.84S

...NEBRASKA PANHANDLE...

CITY           SKY/WX    TMP DP  RH WIND       PRES   REMARKS
CHADRON        MOSUNNY   72  43  35 NW9       29.87F
ALLIANCE       CLOUDY    71  36  27 W16       29.90F
SCOTTSBLUFF    CLOUDY    67  35  30 SW15      29.90F
SIDNEY         TSTM      56  46  69 NW15G25   29.97R

...WESTERN AND NORTH CENTRAL NEBRASKA...

CITY           SKY/WX    TMP DP  RH WIND       PRES   REMARKS
VALENTINE      MOSUNNY   78  48  34 NW10      29.82S
AINSWORTH      CLOUDY    79  49  34 W13       29.82F
ONEILL         MOSUNNY   80  55  42 W14       29.81F
BROKEN BOW     MOSUNNY   79  57  46 NW8       29.85S
IMPERIAL       SUNNY     76  48  37 SE5       29.89F
NORTH PLATTE   MOSUNNY   75  56  51 W8        29.87S
MCCOOK         SUNNY     80  51  36 S3        29.86S

...EASTERN NEBRASKA...

CITY           SKY/WX    TMP DP  RH WIND       PRES   REMARKS
NORFOLK        MOSUNNY   80  58  46 W9        29.80F
SO SIOUX CITY  MOSUNNY   83  63  50 SW9       29.79F
TEKAMAH        PTSUNNY   82  63  52 S14       29.82S
COLUMBUS       MOSUNNY   79  61  53 S6        29.83F
ALBION         PTSUNNY   80  59  49 SW7       29.82F
OMAHA EPPLEY   CLOUDY    78  66  66 S12       29.83S
OFFUTT AFB     CLOUDY    77  66  69 SW8       29.83S
MILLARD        CLOUDY    77  65  66 S7G16     29.84S
LINCOLN        CLOUDY    75  66  73 S10       29.85S
NEBRASKA CITY  CLOUDY    76  67  73 SW12      29.85S
BEATRICE       SUNNY     76  68  76 S12       29.84F
FALLS CITY     PTSUNNY   79  66  64 S15G22    29.85S

...NORTHERN KANSAS...

CITY           SKY/WX    TMP DP  RH WIND       PRES   REMARKS
GOODLAND       SUNNY     79  51  37 N3        29.90F
HILL CITY      CLOUDY    74  62  66 CALM      29.86F
NORTON         CLEAR     75  55  50 CALM      29.86F
PHILLIPSBURG   CLOUDY    75  63  64 CALM      29.86S
SMITH CENTER   MOSUNNY   75  64  69 W5        29.85F
BELOIT         PTSUNNY   77  68  73 CALM      29.82S
HAYS           MOSUNNY   72  64  78 NW7       29.84S
RUSSELL        SUNNY     79  70  74 N14       29.81F
CONCORDIA      CLOUDY    77  67  71 CALM      29.83S
SALINA         PTSUNNY   85  72  65 S8        29.79F HX  91
TOPEKA           N/A     83  67  58 S16G22    29.84F



USA.gov is the U.S. government's official web portal to all federal, state and local government web resources and services.